Location: Lake Lucerne
(45.5315°N, 88.8489°W)
Time: 20:41:30
(UTC-05:00)

ARIANE 6 FM1 Upper Stage - Pass Details

Date: 22 September 2024
Orbit: 563 x 594 km, 62.0° (Epoch: 09 October)

Event Time Altitude Azimuth Distance (km) Brightness Sun altitude
Rises 19:46:48 0° 203° (SSW) 2,765 6.4 -10.4°
Reaches altitude 10° 19:49:04 10° 197° (SSW) 1,877 5.4 -10.8°
Maximum altitude 19:53:08 46° 124° (SE) 783 3.0 -11.5°
Drops below altitude 10° 19:57:15 10° 51° (NE) 1,910 5.0 -12.2°
Enters shadow 19:58:48 - 47° (NE) 2,512 5.7 -12.5°
